Weather History for Kelso-Longview, WA

Change the Weather History Date:

Tuesday, April 29, 2014

  Actual Average Record
Temperature  
Mean Temperature 62 °F -  
Max Temperature 80 °F 60 °F 84 °F (1998)
Min Temperature 44 °F 41 °F 37 °F (1999)
Degree Days  
Heating Degree Days 3    
Growing Degree Days 12 (Base 50)    
Moisture  
Dew Point 40 °F    
Average Humidity 54    
Maximum Humidity 87    
Minimum Humidity 21    
Precipitation  
Precipitation 0.00 in - - ()
Sea Level Pressure  
Sea Level Pressure 30.43 in    
Wind  
Wind Speed 1 mph (SE)    
Max Wind Speed 12 mph    
Max Gust Speed 18 mph    
Visibility 10 miles    
Events      
Averages and records for this station are not official NWS values.
T = Trace of Precipitation, MM = Missing Value Source: NWS Daily Summary

Daily Weather History Graph

Daily Weather History Graph

Search for Another Location

Airport:

Trip Planner

Search our weather history database for the weather conditions in past years. The results will help you decide how hot, cold, wet, or windy it might be!

Date:

Astronomy

Apr. 29, 2014 Rise Set
Actual Time 6:01 AM PDT 8:17 PM PDT
Civil Twilight 5:28 AM PDT 8:50 PM PDT
Nautical Twilight 4:47 AM PDT 9:31 PM PDT
Astronomical Twilight 4:01 AM PDT 10:17 PM PDT
Moon 6:23 AM PDT (4/29) 9:04 PM PDT (4/29)
Length of Visible Light 15h 22m
Length of Day
14h 16m
New Moon, 0% of the Moon is Illuminated
Apr 29
New Moon
May 6
First Quarter
May 14
Full
May 21
Last Quarter
May 28
New

Hourly Weather History & Observations

Time (PDT) Temp. Dew Point Humidity Pressure Visibility Wind Dir Wind Speed Gust Speed Precip Events Conditions
12:15 AM 48.2 °F 41.0 °F 76% 30.39 in 10.0 mi Calm Calm - N/A   Mostly Cloudy
12:35 AM 48.2 °F 41.0 °F 76% 30.40 in 10.0 mi Calm Calm - N/A   Overcast
12:55 AM 48.2 °F 42.8 °F 82% 30.40 in 10.0 mi Calm Calm - N/A   Mostly Cloudy
1:15 AM 48.2 °F 42.8 °F 82% 30.41 in 10.0 mi Calm Calm - N/A   Mostly Cloudy
1:35 AM 48.2 °F 41.0 °F 76% 30.42 in 10.0 mi Calm Calm - N/A   Overcast
1:55 AM 48.2 °F 41.0 °F 76% 30.42 in 10.0 mi Calm Calm - N/A   Overcast
2:15 AM 48.2 °F 42.8 °F 82% 30.43 in 10.0 mi Calm Calm - N/A   Mostly Cloudy
2:35 AM 46.4 °F 41.0 °F 81% 30.43 in 10.0 mi Calm Calm - N/A   Scattered Clouds
2:55 AM 46.4 °F 41.0 °F 81% 30.44 in 10.0 mi Calm Calm - N/A   Scattered Clouds
3:15 AM 46.4 °F 41.0 °F 81% 30.44 in 10.0 mi Calm Calm - N/A   Overcast
3:35 AM 46.4 °F 41.0 °F 81% 30.45 in 10.0 mi Calm Calm - N/A   Overcast
3:55 AM 46.4 °F 41.0 °F 81% 30.45 in 10.0 mi Calm Calm - N/A   Overcast
4:15 AM 44.6 °F 39.2 °F 81% 30.46 in 10.0 mi Calm Calm - N/A   Overcast
4:35 AM 46.4 °F 41.0 °F 81% 30.46 in 10.0 mi Calm Calm - N/A   Overcast
4:55 AM 44.6 °F 39.2 °F 81% 30.47 in 10.0 mi Calm Calm - N/A   Overcast
5:15 AM 44.6 °F 39.2 °F 81% 30.46 in 10.0 mi Calm Calm - N/A   Overcast
5:35 AM 44.6 °F 39.2 °F 81% 30.47 in 10.0 mi Calm Calm - N/A   Mostly Cloudy
5:55 AM 44.6 °F 39.2 °F 81% 30.48 in 10.0 mi Calm Calm - N/A   Overcast
6:15 AM 44.6 °F 39.2 °F 81% 30.48 in 10.0 mi Calm Calm - N/A   Overcast
6:35 AM 44.6 °F 39.2 °F 81% 30.48 in 10.0 mi Calm Calm - N/A   Overcast
6:55 AM 44.6 °F 39.2 °F 81% 30.49 in 10.0 mi Calm Calm - N/A   Mostly Cloudy
7:15 AM 44.6 °F 41.0 °F 87% 30.49 in 10.0 mi Calm Calm - N/A   Partly Cloudy
7:35 AM 46.4 °F 41.0 °F 81% 30.50 in 10.0 mi Calm Calm - N/A   Clear
7:55 AM 48.2 °F 42.8 °F 82% 30.50 in 10.0 mi Calm Calm - N/A   Clear
8:15 AM 50.0 °F 42.8 °F 76% 30.50 in 10.0 mi Calm Calm - N/A   Clear
8:35 AM 50.0 °F 42.8 °F 76% 30.50 in 10.0 mi Calm Calm - N/A   Clear
8:55 AM 51.8 °F 42.8 °F 71% 30.51 in 10.0 mi Calm Calm - N/A   Clear
9:15 AM 53.6 °F 44.6 °F 72% 30.50 in 10.0 mi Calm Calm - N/A   Clear
9:35 AM 55.4 °F 42.8 °F 63% 30.50 in 10.0 mi Calm Calm - N/A   Clear
9:55 AM 57.2 °F 42.8 °F 59% 30.49 in 10.0 mi Calm Calm - N/A   Clear
10:15 AM 59.0 °F 41.0 °F 51% 30.49 in 10.0 mi NW 5.8 mph - N/A   Clear
10:35 AM 60.8 °F 41.0 °F 48% 30.48 in 10.0 mi Calm Calm - N/A   Clear
10:55 AM 62.6 °F 42.8 °F 48% 30.48 in 10.0 mi Calm Calm - N/A   Clear
11:15 AM 64.4 °F 42.8 °F 45% 30.47 in 10.0 mi Calm Calm - N/A   Clear
11:35 AM 64.4 °F 44.6 °F 49% 30.47 in 10.0 mi SSW 3.5 mph - N/A   Clear
11:55 AM 66.2 °F 42.8 °F 43% 30.46 in 10.0 mi Calm Calm - N/A   Clear
12:15 PM 69.8 °F 44.6 °F 40% 30.46 in 10.0 mi Calm Calm - N/A   Clear
12:35 PM 69.8 °F 44.6 °F 40% 30.44 in 10.0 mi Calm Calm - N/A   Clear
12:55 PM 71.6 °F 42.8 °F 35% 30.45 in 10.0 mi SSW 3.5 mph - N/A   Clear
1:15 PM 73.4 °F 42.8 °F 33% 30.44 in 10.0 mi SSW 6.9 mph - N/A   Clear
1:35 PM 73.4 °F 42.8 °F 33% 30.44 in 10.0 mi SW 3.5 mph - N/A   Clear
2:15 PM 75.2 °F 41.0 °F 29% 30.42 in 10.0 mi SSE 4.6 mph - N/A   Clear
2:35 PM 78.8 °F 39.2 °F 24% 30.42 in 10.0 mi South 8.1 mph - N/A   Clear
2:55 PM 78.8 °F 37.4 °F 23% 30.41 in 10.0 mi SE 9.2 mph 16.1 mph N/A   Clear
3:15 PM 78.8 °F 39.2 °F 24% 30.42 in 10.0 mi East 8.1 mph - N/A   Clear
3:35 PM 78.8 °F 37.4 °F 23% 30.41 in 10.0 mi SSE 10.4 mph - N/A   Clear
3:55 PM 78.8 °F 37.4 °F 23% 30.40 in 10.0 mi SSE 6.9 mph 18.4 mph N/A   Clear
4:15 PM 78.8 °F 37.4 °F 23% 30.39 in 10.0 mi SE 4.6 mph - N/A   Clear
4:35 PM 80.6 °F 39.2 °F 23% 30.39 in 10.0 mi SSE 4.6 mph - N/A   Clear
4:55 PM 78.8 °F 37.4 °F 23% 30.39 in 10.0 mi SSE 6.9 mph - N/A   Clear
5:15 PM 80.6 °F 37.4 °F 21% 30.37 in 10.0 mi ESE 5.8 mph - N/A   Clear
5:35 PM 78.8 °F 37.4 °F 23% 30.37 in 10.0 mi SSE 6.9 mph - N/A   Clear
5:55 PM 78.8 °F 37.4 °F 23% 30.37 in 10.0 mi SSE 11.5 mph - N/A   Clear
6:15 PM 78.8 °F 37.4 °F 23% 30.36 in 10.0 mi SE 9.2 mph - N/A   Clear
6:35 PM 78.8 °F 37.4 °F 23% 30.36 in 10.0 mi SE 8.1 mph - N/A   Clear
6:55 PM 77.0 °F 37.4 °F 24% 30.36 in 10.0 mi SE 8.1 mph - N/A   Clear
7:15 PM 77.0 °F 35.6 °F 22% 30.36 in 10.0 mi ESE 9.2 mph - N/A   Clear
7:35 PM 75.2 °F 37.4 °F 25% 30.36 in 10.0 mi ESE 3.5 mph - N/A   Clear
7:55 PM 73.4 °F 35.6 °F 25% 30.36 in 10.0 mi East 4.6 mph - N/A   Clear
8:15 PM 71.6 °F 37.4 °F 29% 30.36 in 10.0 mi East 5.8 mph - N/A   Clear
8:35 PM 69.8 °F 35.6 °F 28% 30.36 in 10.0 mi ESE 4.6 mph - N/A   Clear
8:55 PM 69.8 °F 37.4 °F 31% 30.37 in 10.0 mi East 3.5 mph - N/A   Clear
9:15 PM 64.4 °F 39.2 °F 40% 30.37 in 10.0 mi Calm Calm - N/A   Clear
9:35 PM 62.6 °F 42.8 °F 48% 30.37 in 10.0 mi Calm Calm - N/A   Clear
9:55 PM 60.8 °F 42.8 °F 52% 30.38 in 10.0 mi Calm Calm - N/A   Clear
10:15 PM 60.8 °F 41.0 °F 48% 30.38 in 10.0 mi ESE 3.5 mph - N/A   Clear
10:35 PM 59.0 °F 42.8 °F 55% 30.39 in 10.0 mi Calm Calm - N/A   Clear
10:55 PM 57.2 °F 41.0 °F 55% 30.39 in 10.0 mi Calm Calm - N/A   Clear
11:15 PM 57.2 °F 42.8 °F 59% 30.38 in 10.0 mi Calm Calm - N/A   Clear
11:35 PM 55.4 °F 42.8 °F 63% 30.38 in 10.0 mi Calm Calm - N/A   Clear
11:55 PM 55.4 °F 42.8 °F 63% 30.39 in 10.0 mi Calm Calm - N/A   Clear